[[{"header":{"parameterUnit":"m.s-1","parameterCategory":2,"la1":30.2991,"la2":30.254,"lo1":-89.0895,"lo2":-89.0444,"dy":0.0017,"dx":0.0017,"nx":28,"ny":28,"refTime":"2026-02-09T09:00:00:Z","depth":"0","parameterNumber":2,"parameterNumberName":"U-component_of_CURRENTS"},"data":[0,0,0,0,0,0,0,0,0,0,0,0,0,0,0,0,0,0,0,0,0,0,0,0,0,0,0,0,0,0,0,0,0,0,0,0,0,0,0,0,0,0,0,0,0,0,0,0,0,0,0,0,0,0,0,0,0,0,-0.3401,-0.3402,0,-0.345,-0.345,-0.345,-0.339,-0.3388,-0.3386,-0.3384,-0.3237,-0.3235,-0.3233,0,0,0,0,0,0,0,0,0,0,0,0,0,-0.3336,-0.3337,-0.3401,-0.3402,-0.3403,-0.3449,-0.345,-0.345,-0.339,-0.3388,-0.3385,-0.3383,-0.3238,-0.3235,-0.3233,0,0,0,0,0,0,0,0,0,0,0,0,0,-0.337,-0.3337,-0.3401,-0.338,-0.3378,-0.3449,-0.345,-0.3451,-0.3391,-0.3388,-0.3385,-0.3382,-0.3239,-0.3236,-0.3233,-0.3276,0,0,-0.3224,-0.3222,0,0,0,0,0,0,0,0,-0.3368,-0.3372,-0.3382,-0.3381,-0.338,-0.3412,-0.3373,-0.3383,-0.3392,-0.3384,-0.3384,-0.338,-0.3281,-0.3274,-0.3291,-0.3269,-0.3263,-0.3223,-0.3222,-0.322,-0.3219,0,0,0,0,0,0,0,-0.3366,-0.3371,-0.3419,-0.3383,-0.3382,-0.3395,-0.3395,-0.3376,-0.3344,-0.3385,-0.3381,-0.339,-0.3278,-0.3294,-0.3286,-0.3261,-0.3223,-0.3221,-0.3219,-0.3218,-0.3209,-0.3211,0,0,0,0,0,0,-0.3363,-0.3368,-0.3417,-0.342,-0.3368,-0.3398,-0.3399,-0.3403,-0.3349,-0.334,-0.3393,-0.3387,-0.33,-0.329,-0.328,-0.3206,-0.322,-0.3218,-0.3216,-0.3208,-0.321,-0.3211,0,0,0,0,0,0,-0.3362,-0.3367,-0.3415,-0.3397,-0.3404,-0.3402,-0.3408,-0.3406,-0.3397,-0.3357,-0.3343,-0.3383,-0.3298,-0.3285,-0.3274,-0.3204,-0.3216,-0.3213,-0.3206,-0.3208,-0.321,-0.3135,0,0,0,0,0,0,-0.3359,-0.3366,-0.3368,-0.3397,-0.3405,-0.3429,-0.3411,-0.3409,-0.341,-0.3402,-0.3345,-0.333,-0.3294,-0.3279,-0.3271,-0.32,-0.3211,-0.3204,-0.3207,-0.321,-0.3136,-0.3135,-0.3134,0,0,0,0,0,-0.3357,-0.3366,-0.3368,-0.3374,-0.3408,-0.343,-0.3434,-0.3423,-0.3412,-0.3404,-0.3395,-0.333,-0.329,-0.328,-0.3269,-0.3195,-0.3202,-0.3206,-0.3209,-0.3136,-0.3135,-0.3134,0,0,0,0,0,0,-0.3325,-0.3362,-0.3364,-0.3379,-0.3393,-0.3419,-0.3422,-0.3423,-0.3417,-0.341,-0.3365,-0.3351,-0.3305,-0.3301,-0.329,-0.3214,-0.323,-0.3232,-0.3178,-0.3176,-0.3175,-0.3141,-0.3209,0,0,0,0,0,-0.3328,-0.3347,-0.3373,-0.3383,-0.3393,-0.3411,-0.342,-0.3418,-0.3423,-0.3416,-0.338,-0.3356,-0.3322,-0.3291,-0.3271,-0.3244,-0.3204,-0.3194,-0.3193,-0.3192,-0.3166,-0.3072,-0.3057,-0.3223,-0.3223,-0.3223,0,0,-0.3321,-0.3343,-0.3352,-0.3379,-0.3393,-0.3387,-0.3406,-0.3421,-0.3396,-0.3402,-0.3356,-0.335,-0.3324,-0.328,-0.3257,-0.3255,-0.3134,-0.3196,-0.3194,-0.3168,-0.3074,-0.3056,-0.3041,-0.3225,-0.3225,-0.3224,0,0,-0.3299,-0.3333,-0.3329,-0.3344,-0.3368,-0.3381,-0.338,-0.3401,-0.3384,-0.3379,-0.336,-0.3324,-0.3297,-0.324,-0.3213,-0.3207,-0.3138,-0.3209,-0.315,-0.306,-0.3042,-0.3027,-0.2977,-0.2957,-0.3198,-0.3198,-0.3197,0,-0.3275,-0.3275,-0.3329,-0.3321,-0.3319,-0.3367,-0.3341,-0.3348,-0.3357,-0.3333,-0.3349,-0.3287,-0.3257,-0.3165,-0.3167,-0.3184,-0.3157,-0.314,-0.3048,-0.3032,-0.3017,-0.2969,-0.2949,-0.3194,-0.3195,-0.3195,-0.3195,0,-0.3236,-0.3239,-0.324,-0.3239,-0.3249,-0.3246,-0.3264,-0.3264,-0.3266,-0.3254,-0.3192,-0.3185,-0.3134,-0.312,-0.3138,-0.3022,-0.3046,-0.3055,-0.3027,-0.2994,-0.2949,-0.2929,-0.319,-0.3191,-0.3192,-0.3193,0,0,-0.3131,-0.3197,-0.3182,-0.3168,-0.3203,-0.3194,-0.3183,-0.3155,-0.3113,-0.3119,-0.3036,-0.3002,-0.3006,-0.2982,-0.2984,-0.2913,-0.2797,-0.2947,-0.2944,-0.2857,-0.2626,-0.2566,-0.2538,-0.2788,-0.2783,-0.278,-0.2642,0,-0.3054,-0.3022,-0.308,-0.3029,-0.3005,-0.3066,-0.3039,-0.3033,-0.3029,-0.2974,-0.2951,-0.289,-0.2949,-0.2921,-0.2859,-0.2825,-0.2739,-0.2836,-0.2708,-0.2704,-0.2617,-0.2509,-0.2425,-0.2286,-0.2621,-0.2618,-0.2616,0,-0.2942,-0.2944,-0.2893,-0.2907,-0.29,-0.2885,-0.2847,-0.2836,-0.281,-0.2807,-0.2768,-0.2773,-0.2697,-0.2745,-0.2625,-0.2695,-0.2646,-0.2614,-0.2608,-0.2552,-0.2602,-0.2375,-0.2236,-0.2229,-0.2584,-0.2586,-0.2589,0,-0.2772,-0.2785,-0.2739,-0.2743,-0.2781,-0.2762,-0.2769,-0.2761,-0.2746,-0.2692,-0.2675,-0.2609,-0.2573,-0.2506,-0.2503,-0.2547,-0.2366,-0.2408,-0.2295,-0.2294,-0.2192,-0.2187,-0.1983,-0.2257,-0.2257,-0.2258,-0.2258,0,-0.2623,-0.2574,-0.266,-0.2626,-0.2572,-0.2634,-0.257,-0.2582,-0.2581,-0.2547,-0.2572,-0.2532,-0.2511,-0.245,-0.2431,-0.2306,-0.2301,-0.2238,-0.2221,-0.2173,-0.2168,-0.2137,-0.2187,-0.2253,-0.2254,-0.2255,-0.2256,0,-0.2421,-0.2476,-0.2439,-0.2486,-0.2493,-0.2447,-0.2489,-0.2457,-0.2476,-0.2436,-0.2424,-0.244,-0.2366,-0.2341,-0.2224,-0.2197,-0.2043,-0.2039,-0.2011,-0.199,-0.187,-0.1922,-0.1713,-0.1661,-0.1861,-0.1858,-0.1856,0,-0.2313,-0.2281,-0.233,-0.2324,-0.2345,-0.2322,-0.2322,-0.2376,-0.2376,-0.2389,-0.2364,-0.2302,-0.2241,-0.207,-0.199,-0.1869,-0.191,-0.1729,-0.1763,-0.1793,-0.1839,-0.1896,-0.1874,-0.1622,-0.1618,-0.1615,-0.1612,0,-0.2132,-0.217,-0.216,-0.2169,-0.217,-0.2176,-0.2191,-0.2192,-0.2265,-0.2228,-0.2196,-0.2137,-0.2008,-0.1847,-0.1714,-0.1649,-0.169,-0.1653,-0.1659,-0.1585,-0.1654,-0.1622,-0.1838,-0.1582,-0.1585,-0.1587,-0.1589,-0.159,-0.2029,-0.199,-0.202,-0.2016,-0.2023,-0.2041,-0.1963,-0.2002,-0.1972,-0.1854,-0.1988,-0.1769,-0.1763,-0.1549,-0.1482,-0.1354,-0.1438,-0.1321,-0.137,-0.1417,-0.1376,-0.154,-0.1287,-0.1288,-0.1289,-0.129,-0.1291,0,-0.1945,-0.1903,-0.1877,-0.1872,-0.1825,-0.1885,-0.1873,-0.175,-0.1631,-0.1526,-0.1428,-0.1348,-0.1265,-0.123,-0.1187,-0.111,-0.1103,-0.1096,-0.1158,-0.1138,-0.1231,-0.123,-0.0982,-0.0982,-0.0982,-0.0982,-0.0982,-0.0982,-0.1906,-0.184,-0.1826,-0.1703,-0.167,-0.1502,-0.1447,-0.1289,-0.1134,-0.0852,-0.0665,-0.063,-0.0864,-0.1127,-0.1097,-0.103,-0.1031,-0.0987,-0.1027,-0.1127,-0.1154,-0.1179,-0.1185,-0.0931,-0.0931,-0.0883,-0.0883,-0.0883]},{"header":{"parameterUnit":"m.s-1","parameterCategory":2,"la1":30.2991,"la2":30.254,"lo1":-89.0895,"lo2":-89.0444,"dy":0.0017,"dx":0.0017,"nx":28,"ny":28,"refTime":"2026-02-09T09:00:00:Z","depth":"0","parameterNumber":3,"parameterNumberName":"V-component_of_CURRENTS"},"data":[0,0,0,0,0,0,0,0,0,0,0,0,0,0,0,0,0,0,0,0,0,0,0,0,0,0,0,0,0,0,0,0,0,0,0,0,0,0,0,0,0,0,0,0,0,0,0,0,0,0,0,0,0,0,0,0,0,0,0.0242,0.0244,0,0.0452,0.0455,0.0459,0.0603,0.0603,0.0603,0.0603,0.0874,0.088,0.0887,0,0,0,0,0,0,0,0,0,0,0,0,0,0.0167,0.0167,0.0242,0.0244,0.0245,0.0452,0.0456,0.0459,0.0603,0.0603,0.0603,0.0603,0.0871,0.0879,0.0888,0,0,0,0,0,0,0,0,0,0,0,0,0,0.0279,0.0167,0.0242,0.0335,0.0345,0.0451,0.0456,0.046,0.0603,0.0603,0.0603,0.0603,0.0868,0.0879,0.0889,0.0948,0,0,0.0921,0.0926,0,0,0,0,0,0,0,0,0.0272,0.0282,0.0319,0.0329,0.034,0.0493,0.0528,0.0623,0.0603,0.0515,0.0603,0.0604,0.0746,0.0766,0.0818,0.0961,0.0972,0.0922,0.0929,0.0933,0.0936,0,0,0,0,0,0,0,0.0264,0.0275,0.0335,0.0321,0.0333,0.0435,0.045,0.0548,0.0634,0.0522,0.0531,0.0539,0.0753,0.0807,0.0825,0.0976,0.0922,0.0931,0.0938,0.0942,0.1125,0.1124,0,0,0,0,0,0,0.0208,0.0266,0.0328,0.034,0.0295,0.0434,0.0452,0.0451,0.0632,0.0657,0.0539,0.0545,0.0789,0.0813,0.0835,0.0847,0.0933,0.0943,0.0949,0.1127,0.1125,0.1124,0,0,0,0,0,0,0.0205,0.0211,0.0319,0.0302,0.0321,0.0433,0.0433,0.0455,0.0492,0.0642,0.067,0.0549,0.079,0.082,0.0928,0.086,0.0948,0.0957,0.1129,0.1126,0.1124,0.0914,0,0,0,0,0,0,0.0202,0.0209,0.0187,0.0297,0.032,0.0346,0.0432,0.0459,0.0493,0.0504,0.066,0.0687,0.0793,0.0912,0.0939,0.0877,0.0965,0.113,0.1128,0.1125,0.0922,0.0905,0.0889,0,0,0,0,0,0.0199,0.0153,0.0185,0.0192,0.0286,0.0343,0.0365,0.0454,0.0492,0.0493,0.0625,0.0681,0.0911,0.0921,0.0953,0.0891,0.1132,0.1128,0.1125,0.093,0.0908,0.089,0,0,0,0,0,0,0.0092,0.0166,0.0203,0.0177,0.0239,0.0363,0.0367,0.043,0.0536,0.0552,0.0699,0.0736,0.0794,0.0882,0.0888,0.0935,0.1016,0.1019,0.0856,0.0837,0.0821,0.0803,0.0974,0,0,0,0,0,0.0059,0.0057,0.0139,0.0119,0.0139,0.0251,0.0283,0.0346,0.045,0.0496,0.0605,0.0718,0.0808,0.0854,0.0954,0.0998,0.1051,0.0969,0.0952,0.0937,0.0944,0.0951,0.0934,0.1113,0.1113,0.1113,0,0,0.0016,0.005,0.0051,0.0098,0.0159,0.0185,0.0273,0.0305,0.0335,0.0509,0.0576,0.0673,0.0812,0.0862,0.089,0.0924,0.0912,0.0933,0.092,0.0935,0.0946,0.0928,0.0912,0.1111,0.1111,0.1112,0,0,-0.0066,-0.0048,-0.0065,-0.0023,0.0041,0.0113,0.0106,0.0213,0.0262,0.0342,0.0463,0.0526,0.0671,0.0748,0.0808,0.076,0.0829,0.0765,0.0664,0.0668,0.0653,0.064,0.0664,0.0656,0.0748,0.0748,0.0748,0,-0.0127,-0.0126,-0.0065,-0.0066,-0.0037,0.0065,0.0066,0.0128,0.0259,0.0296,0.0329,0.0515,0.0613,0.068,0.066,0.0717,0.0744,0.0722,0.0642,0.0631,0.0622,0.065,0.0643,0.0737,0.0739,0.074,0.0741,0,-0.0196,-0.0194,-0.0209,-0.0165,-0.0134,-0.0122,-0.0034,0.0002,0.0065,0.014,0.0206,0.0339,0.0447,0.0453,0.0553,0.0528,0.0575,0.0619,0.0681,0.059,0.0627,0.0623,0.0722,0.0726,0.0729,0.0732,0,0,-0.0329,-0.0267,-0.0271,-0.0254,-0.018,-0.0161,-0.0132,-0.0065,-0.0051,0.0035,0.0056,0.0175,0.0234,0.0307,0.0399,0.0396,0.0339,0.0464,0.0469,0.0468,0.0353,0.0425,0.0429,0.0354,0.0353,0.0352,0.0397,0,-0.0393,-0.0412,-0.0356,-0.0361,-0.0354,-0.0261,-0.0243,-0.0175,-0.0111,-0.0072,0.0026,0.0087,0.018,0.021,0.0221,0.033,0.0324,0.0324,0.0462,0.0467,0.0524,0.0425,0.0469,0.0516,0.0394,0.0394,0.0394,0,-0.0469,-0.0463,-0.0481,-0.0435,-0.0429,-0.0419,-0.0369,-0.0336,-0.0254,-0.0209,-0.0145,-0.0053,0.0004,0.0064,0.017,0.0163,0.0239,0.0301,0.0305,0.0451,0.0532,0.0595,0.0516,0.0648,0.0389,0.039,0.039,0,-0.0565,-0.0549,-0.0563,-0.0547,-0.0489,-0.0484,-0.0453,-0.0381,-0.0356,-0.0298,-0.028,-0.019,-0.0134,-0.0055,0.0119,0.0123,0.0222,0.0249,0.0384,0.0392,0.0502,0.0521,0.0556,0.0285,0.0285,0.0285,0.0285,0,-0.064,-0.0651,-0.0613,-0.0618,-0.0642,-0.0576,-0.0588,-0.0541,-0.0488,-0.0454,-0.0358,-0.0308,-0.0169,-0.0062,0.0062,0.0231,0.0185,0.0356,0.0397,0.043,0.0442,0.0627,0.0681,0.0287,0.0286,0.0286,0.0286,0,-0.072,-0.0695,-0.0712,-0.0684,-0.0681,-0.0699,-0.0663,-0.0666,-0.0607,-0.0564,-0.0548,-0.041,-0.0262,-0.01,0.0056,0.0178,0.0403,0.0387,0.0432,0.0477,0.0705,0.0747,0.0853,0.0938,0.0504,0.0506,0.0508,0,-0.075,-0.0769,-0.0775,-0.0794,-0.0779,-0.079,-0.0791,-0.0734,-0.0715,-0.0593,-0.0574,-0.043,-0.0269,-0.0013,0.019,0.0396,0.0503,0.0555,0.0567,0.0711,0.0787,0.0815,0.088,0.0624,0.0626,0.0628,0.063,0,-0.0798,-0.0809,-0.0823,-0.0868,-0.0885,-0.0895,-0.0881,-0.086,-0.076,-0.0642,-0.0463,-0.0332,-0.0126,0.0142,0.0375,0.0501,0.0655,0.0602,0.0728,0.0859,0.0915,0.1021,0.0617,0.0647,0.0646,0.0644,0.0643,0.0643,-0.0812,-0.0858,-0.0882,-0.091,-0.0945,-0.0932,-0.0857,-0.0786,-0.064,-0.0342,-0.0295,0.0055,0.0178,0.0518,0.0637,0.0865,0.0821,0.096,0.0991,0.1001,0.1101,0.0746,0.0841,0.084,0.0839,0.0839,0.0839,0,-0.074,-0.0828,-0.0908,-0.091,-0.0903,-0.0929,-0.0854,-0.0701,-0.0407,-0.0136,0.0167,0.0582,0.0785,0.0897,0.1092,0.1249,0.1275,0.1325,0.1366,0.1409,0.108,0.1105,0.1289,0.1289,0.1289,0.1289,0.1289,0.1288,-0.0678,-0.0747,-0.081,-0.0813,-0.0817,-0.0709,-0.0605,-0.0367,-0.0131,0.0435,0.0838,0.1083,0.1171,0.1383,0.1567,0.159,0.1734,0.1716,0.1792,0.1561,0.1529,0.1498,0.1536,0.1806,0.1807,0.2124,0.2127,0.213]}],[{"header":{"parameterUnit":"m.s-1","parameterCategory":2,"la1":30.2991,"la2":30.254,"lo1":-89.0895,"lo2":-89.0444,"dy":0.0017,"dx":0.0017,"nx":28,"ny":28,"refTime":"2026-02-09T09:00:00:Z","depth":"2","parameterNumber":2,"parameterNumberName":"U-component_of_CURRENTS"},"data":[0,0,0,0,0,0,0,0,0,0,0,0,0,0,0,0,0,0,0,0,0,0,0,0,0,0,0,0,0,0,0,0,0,0,0,0,0,0,0,0,0,0,0,0,0,0,0,0,0,0,0,0,0,0,0,0,0,0,-0.216,-0.2161,0,-0.2209,-0.2209,-0.2209,-0.2193,-0.2193,-0.2192,-0.2192,-0.2213,-0.2213,-0.2214,0,0,0,0,0,0,0,0,0,0,0,0,0,-0.2032,-0.2033,-0.216,-0.2161,-0.2163,-0.2209,-0.2209,-0.2209,-0.2193,-0.2193,-0.2192,-0.2192,-0.2212,-0.2213,-0.2214,0,0,0,0,0,0,0,0,0,0,0,0,0,-0.2077,-0.2034,-0.216,-0.2166,-0.2168,-0.2209,-0.2209,-0.2209,-0.2193,-0.2193,-0.2192,-0.2192,-0.2212,-0.2213,-0.2214,-0.2231,0,0,-0.2218,-0.2219,0,0,0,0,0,0,0,0,-0.2074,-0.208,-0.2164,-0.2166,-0.2168,-0.2202,-0.2172,-0.2218,-0.2193,-0.2175,-0.2192,-0.2192,-0.2212,-0.2214,-0.2212,-0.2232,-0.2233,-0.2218,-0.2219,-0.222,-0.222,0,0,0,0,0,0,0,-0.2071,-0.2078,-0.2171,-0.2166,-0.2168,-0.2161,-0.2166,-0.218,-0.2188,-0.2176,-0.2177,-0.2196,-0.2212,-0.2211,-0.2212,-0.2233,-0.2218,-0.2219,-0.222,-0.2221,-0.2347,-0.235,0,0,0,0,0,0,-0.2084,-0.2076,-0.2169,-0.2173,-0.2129,-0.2164,-0.217,-0.2185,-0.2189,-0.2192,-0.2197,-0.2196,-0.2209,-0.2211,-0.2213,-0.2249,-0.222,-0.2221,-0.2221,-0.2345,-0.2348,-0.2351,0,0,0,0,0,0,-0.2081,-0.2092,-0.2167,-0.2132,-0.2142,-0.2168,-0.2184,-0.2186,-0.2193,-0.2206,-0.2207,-0.2205,-0.2209,-0.2211,-0.2241,-0.2249,-0.2221,-0.2222,-0.2342,-0.2346,-0.2349,-0.231,0,0,0,0,0,0,-0.2077,-0.209,-0.2113,-0.2133,-0.2145,-0.2197,-0.2186,-0.2188,-0.221,-0.2208,-0.2213,-0.2214,-0.2209,-0.2239,-0.2242,-0.225,-0.2223,-0.2338,-0.2344,-0.2348,-0.2308,-0.2312,-0.2316,0,0,0,0,0,-0.2072,-0.211,-0.2113,-0.2126,-0.2173,-0.2198,-0.2203,-0.2213,-0.2211,-0.2216,-0.2227,-0.2214,-0.2274,-0.2242,-0.2245,-0.2253,-0.2336,-0.2342,-0.2348,-0.2306,-0.2311,-0.2316,0,0,0,0,0,0,-0.2072,-0.2114,-0.2117,-0.2168,-0.2183,-0.2199,-0.2217,-0.2222,-0.2233,-0.2239,-0.2234,-0.2236,-0.2272,-0.2284,-0.2249,-0.2315,-0.2309,-0.2316,-0.2277,-0.2282,-0.2285,-0.2245,-0.2224,0,0,0,0,0,-0.2083,-0.211,-0.2145,-0.2177,-0.2191,-0.2202,-0.2218,-0.2228,-0.2243,-0.2247,-0.2251,-0.2274,-0.23,-0.2305,-0.2334,-0.2355,-0.2331,-0.2375,-0.2379,-0.2381,-0.2358,-0.233,-0.2326,-0.237,-0.237,-0.237,0,0,-0.2087,-0.2118,-0.2131,-0.2177,-0.2187,-0.2204,-0.2208,-0.2239,-0.2251,-0.225,-0.2266,-0.2288,-0.2315,-0.2343,-0.236,-0.2347,-0.2363,-0.2389,-0.239,-0.2365,-0.2335,-0.233,-0.2325,-0.2374,-0.2374,-0.2373,0,0,-0.2097,-0.2136,-0.2154,-0.2174,-0.2212,-0.2222,-0.2234,-0.2259,-0.2268,-0.2302,-0.2305,-0.2319,-0.2371,-0.2362,-0.2373,-0.2419,-0.2392,-0.2459,-0.2424,-0.2397,-0.2391,-0.2385,-0.2353,-0.2344,-0.2449,-0.2449,-0.2449,0,-0.2104,-0.2127,-0.2162,-0.2184,-0.22,-0.2228,-0.224,-0.226,-0.229,-0.229,-0.2315,-0.2356,-0.2371,-0.2369,-0.2387,-0.2417,-0.2404,-0.2389,-0.2393,-0.2387,-0.2381,-0.235,-0.2341,-0.2448,-0.2448,-0.2448,-0.2448,0,-0.2112,-0.2137,-0.215,-0.2177,-0.2203,-0.2222,-0.2259,-0.2278,-0.2305,-0.2311,-0.2337,-0.2357,-0.2368,-0.2392,-0.24,-0.238,-0.2384,-0.2401,-0.2358,-0.2373,-0.2341,-0.2332,-0.2446,-0.2446,-0.2447,-0.2447,0,0,-0.2098,-0.2145,-0.2147,-0.2155,-0.2202,-0.2221,-0.2249,-0.2265,-0.2272,-0.2307,-0.23,-0.2336,-0.2333,-0.2346,-0.2356,-0.2329,-0.2281,-0.2346,-0.2345,-0.2272,-0.2217,-0.2141,-0.2124,-0.2296,-0.2294,-0.2293,-0.221,0,-0.2081,-0.2111,-0.2141,-0.2157,-0.217,-0.2208,-0.2227,-0.2254,-0.2281,-0.2288,-0.2296,-0.231,-0.2323,-0.2331,-0.2302,-0.2304,-0.2257,-0.2301,-0.225,-0.2248,-0.2143,-0.2111,-0.1977,-0.1885,-0.2201,-0.2199,-0.2198,0,-0.2067,-0.2089,-0.2104,-0.2141,-0.2151,-0.2168,-0.2196,-0.2222,-0.2238,-0.2261,-0.2256,-0.2274,-0.2244,-0.2266,-0.2212,-0.2245,-0.2216,-0.2205,-0.2202,-0.2129,-0.2154,-0.1927,-0.1856,-0.2183,-0.2184,-0.2185,-0.2186,0,-0.2021,-0.206,-0.2067,-0.2081,-0.2131,-0.2142,-0.2168,-0.2199,-0.2216,-0.223,-0.2241,-0.2221,-0.222,-0.2185,-0.2166,-0.219,-0.2103,-0.2136,-0.2027,-0.2022,-0.1893,-0.1879,-0.2062,-0.2062,-0.2062,-0.2062,-0.2063,0,-0.1986,-0.199,-0.2047,-0.205,-0.2059,-0.2115,-0.2124,-0.2152,-0.2184,-0.2182,-0.2212,-0.2202,-0.2201,-0.2165,-0.214,-0.2045,-0.2075,-0.1989,-0.1981,-0.1881,-0.1868,-0.2123,-0.2132,-0.2059,-0.206,-0.206,-0.2061,0,-0.1921,-0.1959,-0.1969,-0.202,-0.2035,-0.2043,-0.2096,-0.2104,-0.2149,-0.2149,-0.2152,-0.2175,-0.2124,-0.2102,-0.2044,-0.2001,-0.1931,-0.1884,-0.1763,-0.1741,-0.1875,-0.1883,-0.1746,-0.1743,-0.1739,-0.1737,-0.1735,0,-0.1884,-0.1883,-0.1932,-0.1936,-0.1953,-0.1981,-0.1996,-0.2066,-0.2078,-0.212,-0.2108,-0.2083,-0.2024,-0.1915,-0.1832,-0.1732,-0.1822,-0.1563,-0.157,-0.1828,-0.1836,-0.1849,-0.1861,-0.1395,-0.139,-0.1386,-0.1383,0,-0.1799,-0.1822,-0.1831,-0.1845,-0.1862,-0.1879,-0.1911,-0.192,-0.1991,-0.1997,-0.1976,-0.1934,-0.1835,-0.1665,-0.1553,-0.149,-0.1573,-0.1478,-0.1754,-0.1502,-0.1491,-0.1502,-0.1526,-0.1348,-0.1352,-0.1354,-0.1356,-0.1357,-0.1722,-0.1711,-0.1728,-0.1726,-0.1751,-0.1749,-0.1712,-0.1762,-0.1757,-0.173,-0.1792,-0.1682,-0.1629,-0.1374,-0.1271,-0.1198,-0.1313,-0.1265,-0.1279,-0.1297,-0.1277,-0.1262,-0.1072,-0.1073,-0.1075,-0.1076,-0.1078,0,-0.1611,-0.1608,-0.1605,-0.1594,-0.1563,-0.1621,-0.1623,-0.1565,-0.1507,-0.1527,-0.1482,-0.1298,-0.1162,-0.1119,-0.0939,-0.0888,-0.0902,-0.0859,-0.089,-0.0924,-0.0954,-0.092,-0.0618,-0.0617,-0.0616,-0.0615,0,0,-0.1549,-0.1501,-0.1496,-0.1397,-0.1389,-0.1299,-0.1265,-0.1216,-0.1193,-0.1114,-0.1067,-0.1123,-0.1101,-0.0879,-0.0802,-0.0683,-0.0803,-0.0644,-0.1012,-0.1085,-0.1114,-0.1183,-0.1167,0,0,0,0,0]},{"header":{"parameterUnit":"m.s-1","parameterCategory":2,"la1":30.2991,"la2":30.254,"lo1":-89.0895,"lo2":-89.0444,"dy":0.0017,"dx":0.0017,"nx":28,"ny":28,"refTime":"2026-02-09T09:00:00:Z","depth":"2","parameterNumber":3,"parameterNumberName":"V-component_of_CURRENTS"},"data":[0,0,0,0,0,0,0,0,0,0,0,0,0,0,0,0,0,0,0,0,0,0,0,0,0,0,0,0,0,0,0,0,0,0,0,0,0,0,0,0,0,0,0,0,0,0,0,0,0,0,0,0,0,0,0,0,0,0,-0.0511,-0.051,0,-0.0474,-0.0474,-0.0473,-0.0434,-0.0433,-0.0432,-0.0432,-0.0379,-0.0379,-0.0378,0,0,0,0,0,0,0,0,0,0,0,0,0,-0.0547,-0.0547,-0.0511,-0.051,-0.051,-0.0474,-0.0474,-0.0473,-0.0434,-0.0433,-0.0432,-0.0431,-0.038,-0.0379,-0.0378,0,0,0,0,0,0,0,0,0,0,0,0,0,-0.0525,-0.0547,-0.0511,-0.0485,-0.0482,-0.0474,-0.0474,-0.0473,-0.0434,-0.0433,-0.0432,-0.0431,-0.038,-0.0379,-0.0378,-0.0392,0,0,-0.0374,-0.0374,0,0,0,0,0,0,0,0,-0.0526,-0.0523,-0.0489,-0.0486,-0.0483,-0.0456,-0.0467,-0.0445,-0.0434,-0.0454,-0.0432,-0.043,-0.0404,-0.04,-0.0398,-0.0389,-0.0387,-0.0374,-0.0374,-0.0373,-0.0373,0,0,0,0,0,0,0,-0.0528,-0.0525,-0.0498,-0.0488,-0.0485,-0.0475,-0.0471,-0.0463,-0.0436,-0.0452,-0.0449,-0.0443,-0.0402,-0.0399,-0.0396,-0.0386,-0.0374,-0.0373,-0.0373,-0.0372,-0.0284,-0.0282,0,0,0,0,0,0,-0.053,-0.0526,-0.0499,-0.0496,-0.0501,-0.0475,-0.047,-0.0467,-0.0436,-0.043,-0.0444,-0.0441,-0.0402,-0.0398,-0.0394,-0.0364,-0.0373,-0.0372,-0.0372,-0.0286,-0.0284,-0.0282,0,0,0,0,0,0,-0.0531,-0.0529,-0.05,-0.0509,-0.0505,-0.0475,-0.0472,-0.0467,-0.0458,-0.043,-0.0423,-0.0439,-0.0401,-0.0396,-0.0383,-0.0363,-0.0372,-0.0371,-0.0288,-0.0285,-0.0283,-0.0331,0,0,0,0,0,0,-0.0533,-0.0529,-0.0527,-0.051,-0.0504,-0.0492,-0.0473,-0.0467,-0.0456,-0.0452,-0.0424,-0.0418,-0.04,-0.0385,-0.0382,-0.0362,-0.037,-0.029,-0.0286,-0.0283,-0.0332,-0.0331,-0.033,0,0,0,0,0,-0.0534,-0.0537,-0.0528,-0.0524,-0.0503,-0.0492,-0.0489,-0.0465,-0.0457,-0.0454,-0.0435,-0.0419,-0.036,-0.0384,-0.0381,-0.036,-0.0291,-0.0287,-0.0284,-0.0332,-0.0331,-0.033,0,0,0,0,0,0,-0.055,-0.0533,-0.0522,-0.0518,-0.0504,-0.0485,-0.0482,-0.0469,-0.0454,-0.045,-0.0424,-0.0418,-0.0388,-0.0366,-0.0393,-0.0317,-0.0312,-0.0308,-0.035,-0.0349,-0.0348,-0.0353,-0.0369,0,0,0,0,0,-0.0554,-0.0554,-0.0532,-0.0531,-0.0526,-0.0506,-0.0499,-0.0483,-0.0468,-0.046,-0.0439,-0.0405,-0.0371,-0.0358,-0.0327,-0.031,-0.0277,-0.0281,-0.028,-0.028,-0.0276,-0.0216,-0.021,-0.0269,-0.0269,-0.0269,0,0,-0.0562,-0.055,-0.0551,-0.0534,-0.0524,-0.052,-0.05,-0.0491,-0.048,-0.0458,-0.0441,-0.041,-0.0365,-0.0334,-0.0316,-0.0316,-0.0244,-0.0275,-0.0276,-0.0272,-0.0211,-0.0206,-0.0201,-0.0267,-0.0267,-0.0268,0,0,-0.0581,-0.0567,-0.0574,-0.0563,-0.0546,-0.0532,-0.0531,-0.051,-0.0491,-0.0477,-0.0442,-0.0404,-0.0369,-0.0325,-0.03,-0.0274,-0.0242,-0.0252,-0.0259,-0.0201,-0.0196,-0.0192,-0.0151,-0.0142,-0.0252,-0.0252,-0.0252,0,-0.0589,-0.0591,-0.0574,-0.0574,-0.0566,-0.054,-0.0542,-0.0523,-0.0497,-0.048,-0.0471,-0.0389,-0.0358,-0.0303,-0.0288,-0.0274,-0.0243,-0.0279,-0.0203,-0.0198,-0.0192,-0.0151,-0.0141,-0.0254,-0.0254,-0.0254,-0.0253,0,-0.0612,-0.0609,-0.0613,-0.0604,-0.0594,-0.0591,-0.0562,-0.0546,-0.0522,-0.0496,-0.0441,-0.0395,-0.0341,-0.0314,-0.0301,-0.0236,-0.0228,-0.0215,-0.0218,-0.019,-0.0148,-0.0136,-0.0257,-0.0256,-0.0255,-0.0255,0,0,-0.064,-0.0632,-0.0631,-0.063,-0.0607,-0.0603,-0.0583,-0.0553,-0.0534,-0.049,-0.0455,-0.0386,-0.0355,-0.0321,-0.0282,-0.0231,-0.0173,-0.0214,-0.021,-0.0195,-0.0057,-0.0039,-0.0025,-0.0154,-0.0152,-0.0151,-0.0047,0,-0.0661,-0.0672,-0.0656,-0.066,-0.0664,-0.0629,-0.0613,-0.0579,-0.0542,-0.0502,-0.043,-0.0383,-0.0357,-0.033,-0.0274,-0.02,-0.0144,-0.0203,-0.0066,-0.0062,-0.0067,-0.0011,-0.0025,0.0068,-0.0036,-0.0034,-0.0032,0,-0.0687,-0.0689,-0.0701,-0.0685,-0.0682,-0.0678,-0.0643,-0.0622,-0.0556,-0.0523,-0.0462,-0.0409,-0.0328,-0.0306,-0.0167,-0.021,-0.0134,-0.0074,-0.0069,-0.0026,-0.0022,0.0029,0.0092,-0.0013,-0.0015,-0.0016,-0.0018,0,-0.0719,-0.0717,-0.0728,-0.0724,-0.0704,-0.0697,-0.0681,-0.0631,-0.061,-0.0536,-0.051,-0.0409,-0.0353,-0.0248,-0.0132,-0.0146,0.0022,0.0021,0.0114,0.0115,0.0146,0.0146,0.0138,0.0137,0.0137,0.0137,0.0137,0,-0.0746,-0.0753,-0.0746,-0.0753,-0.0761,-0.073,-0.0723,-0.069,-0.0636,-0.0606,-0.0526,-0.0472,-0.0334,-0.0227,-0.0126,0.0027,0.0033,0.0129,0.0154,0.0129,0.0127,0.009,0.0083,0.0141,0.014,0.0139,0.0139,0,-0.0781,-0.0775,-0.0791,-0.0782,-0.0782,-0.0788,-0.0768,-0.0758,-0.07,-0.0656,-0.0632,-0.051,-0.0367,-0.0228,-0.0045,0.0038,0.0179,0.0236,0.0187,0.0205,0.0228,0.0218,0.035,0.0352,0.0353,0.0354,0.0355,0,-0.0798,-0.0812,-0.0827,-0.0845,-0.0845,-0.0848,-0.0851,-0.0801,-0.0784,-0.0675,-0.0654,-0.0505,-0.0389,-0.0127,0.0051,0.0243,0.0238,0.0338,0.032,0.0245,0.0256,0.0243,0.0231,0.0339,0.034,0.034,0.0341,0,-0.0831,-0.084,-0.0856,-0.0902,-0.0919,-0.0931,-0.0924,-0.0918,-0.0842,-0.0786,-0.0675,-0.0568,-0.0304,-0.0085,0.016,0.0268,0.0301,0.0358,0.0322,0.0279,0.0241,0.0249,0.0237,0.0347,0.0346,0.0346,0.0345,0.0345,-0.0856,-0.0883,-0.0914,-0.0955,-0.0982,-0.1003,-0.1003,-0.0975,-0.0932,-0.0825,-0.071,-0.0528,-0.0299,0.005,0.023,0.0389,0.0382,0.0421,0.0417,0.0412,0.0384,0.035,0.047,0.047,0.047,0.0471,0.0471,0,-0.0887,-0.0919,-0.0964,-0.1011,-0.1053,-0.105,-0.1044,-0.1014,-0.0957,-0.0834,-0.0705,-0.0437,-0.0183,0.0046,0.031,0.0466,0.0449,0.0485,0.0433,0.0427,0.0422,0.0392,0.0482,0.0482,0.0483,0.0483,0,0,-0.0906,-0.0956,-0.0983,-0.106,-0.1094,-0.1114,-0.1105,-0.1037,-0.0936,-0.0795,-0.0654,-0.0475,-0.0173,0.0011,0.0218,0.0359,0.0347,0.0368,0.0345,0.0254,0.0247,0.0375,0.0321,0,0,0,0,0]}],[{"header":{"parameterUnit":"m.s-1","parameterCategory":2,"la1":30.2991,"la2":30.254,"lo1":-89.0895,"lo2":-89.0444,"dy":0.0017,"dx":0.0017,"nx":28,"ny":28,"refTime":"2026-02-09T09:00:00:Z","depth":"4","parameterNumber":2,"parameterNumberName":"U-component_of_CURRENTS"},"data":[0,0,0,0,0,0,0,0,0,0,0,0,0,0,0,0,0,0,0,0,0,0,0,0,0,0,0,0,0,0,0,0,0,0,0,0,0,0,0,0,0,0,0,0,0,0,0,0,0,0,0,0,0,0,0,0,0,0,-0.1332,-0.1333,0,-0.1391,-0.1392,-0.1392,-0.1424,-0.1425,-0.1425,-0.1425,-0.1468,-0.1469,-0.147,0,0,0,0,0,0,0,0,0,0,0,0,0,-0.1257,-0.1258,-0.1332,-0.1333,-0.1334,-0.1391,-0.1392,-0.1392,-0.1424,-0.1425,-0.1425,-0.1425,-0.1468,-0.1469,-0.147,0,0,0,0,0,0,0,0,0,0,0,0,0,-0.1299,-0.1258,-0.1332,-0.1357,-0.136,-0.1391,-0.1392,-0.1393,-0.1424,-0.1425,-0.1425,-0.1425,-0.1467,-0.1469,-0.147,-0.1474,0,0,-0.1474,-0.1475,0,0,0,0,0,0,0,0,-0.1296,-0.1301,-0.1353,-0.1356,-0.1359,-0.1402,-0.1381,-0.1419,-0.1424,-0.1399,-0.1425,-0.1425,-0.1445,-0.1448,-0.1457,-0.1476,-0.1477,-0.1475,-0.1475,-0.1476,-0.1477,0,0,0,0,0,0,0,-0.1293,-0.1299,-0.1354,-0.1354,-0.1357,-0.1369,-0.1375,-0.1388,-0.1418,-0.1401,-0.1404,-0.1412,-0.1446,-0.1456,-0.1458,-0.1478,-0.1475,-0.1476,-0.1477,-0.1477,-0.157,-0.1572,0,0,0,0,0,0,-0.1288,-0.1296,-0.1352,-0.1356,-0.1329,-0.137,-0.1377,-0.1387,-0.1419,-0.1424,-0.1412,-0.1413,-0.1453,-0.1457,-0.146,-0.1519,-0.1476,-0.1477,-0.1478,-0.1569,-0.1571,-0.1572,0,0,0,0,0,0,-0.1286,-0.1292,-0.135,-0.1328,-0.1337,-0.1371,-0.1382,-0.1388,-0.1423,-0.1427,-0.1432,-0.1444,-0.1453,-0.1458,-0.1501,-0.1519,-0.1478,-0.1479,-0.1567,-0.1569,-0.1571,-0.1604,0,0,0,0,0,0,-0.1283,-0.1291,-0.1307,-0.1328,-0.1338,-0.1385,-0.1382,-0.1389,-0.1427,-0.143,-0.1456,-0.1459,-0.1454,-0.1499,-0.1503,-0.152,-0.1481,-0.1565,-0.1568,-0.1571,-0.1601,-0.1607,-0.1612,0,0,0,0,0,-0.128,-0.1301,-0.1308,-0.1315,-0.1355,-0.1386,-0.1393,-0.1417,-0.1429,-0.1449,-0.1473,-0.146,-0.152,-0.1502,-0.1506,-0.1524,-0.1563,-0.1567,-0.157,-0.1598,-0.1606,-0.1612,0,0,0,0,0,0,-0.1283,-0.1307,-0.1315,-0.1343,-0.137,-0.1392,-0.1419,-0.1434,-0.147,-0.148,-0.1483,-0.1488,-0.1528,-0.153,-0.151,-0.1562,-0.1539,-0.1543,-0.1558,-0.1565,-0.1571,-0.1565,-0.1482,0,0,0,0,0,-0.1289,-0.131,-0.1333,-0.136,-0.1375,-0.1402,-0.1423,-0.1439,-0.1467,-0.1485,-0.1504,-0.1526,-0.1542,-0.1558,-0.1572,-0.1606,-0.1591,-0.1621,-0.1627,-0.1632,-0.1631,-0.1638,-0.1644,-0.1584,-0.1584,-0.1584,0,0,-0.13,-0.1315,-0.133,-0.1362,-0.1386,-0.1411,-0.1416,-0.1456,-0.1481,-0.1483,-0.1535,-0.1548,-0.1557,-0.159,-0.1609,-0.1597,-0.164,-0.1636,-0.164,-0.1637,-0.1643,-0.1648,-0.1653,-0.1587,-0.1586,-0.1586,0,0,-0.1321,-0.1346,-0.1366,-0.1389,-0.1426,-0.144,-0.1457,-0.1495,-0.1519,-0.1567,-0.1569,-0.1599,-0.1638,-0.1639,-0.1645,-0.1695,-0.1669,-0.1705,-0.173,-0.1738,-0.1742,-0.1745,-0.1722,-0.1724,-0.1709,-0.1709,-0.1709,0,-0.1337,-0.1358,-0.1379,-0.1404,-0.1426,-0.1455,-0.1482,-0.1509,-0.1559,-0.158,-0.1592,-0.165,-0.1656,-0.1682,-0.1698,-0.1705,-0.1699,-0.1699,-0.1743,-0.1746,-0.1749,-0.1725,-0.1726,-0.1711,-0.1711,-0.1711,-0.1711,0,-0.1361,-0.1389,-0.1408,-0.1442,-0.1469,-0.1502,-0.1533,-0.157,-0.1605,-0.1629,-0.1682,-0.1699,-0.173,-0.1737,-0.1733,-0.1761,-0.1745,-0.1745,-0.1719,-0.1757,-0.1729,-0.173,-0.1714,-0.1714,-0.1713,-0.1712,0,0,-0.1365,-0.1415,-0.1424,-0.1444,-0.1492,-0.1517,-0.156,-0.1601,-0.1636,-0.1687,-0.1727,-0.1761,-0.1777,-0.1785,-0.1786,-0.1794,-0.1804,-0.1785,-0.1785,-0.175,-0.1803,-0.1669,-0.1656,-0.1817,-0.1818,-0.1818,-0.1769,0,-0.138,-0.1424,-0.1445,-0.1495,-0.1517,-0.1555,-0.1593,-0.1638,-0.1679,-0.1726,-0.1751,-0.1792,-0.1793,-0.1812,-0.1823,-0.1812,-0.181,-0.1816,-0.1782,-0.178,-0.1646,-0.1654,-0.182,-0.1769,-0.1769,-0.177,-0.177,0,-0.1385,-0.1414,-0.146,-0.1515,-0.1532,-0.157,-0.1632,-0.167,-0.173,-0.1764,-0.1807,-0.1828,-0.1851,-0.1848,-0.1848,-0.1856,-0.1833,-0.1819,-0.1817,-0.1679,-0.1646,-0.1728,-0.177,-0.177,-0.177,-0.177,-0.177,0,-0.1358,-0.1421,-0.1458,-0.1479,-0.1547,-0.1583,-0.1625,-0.1689,-0.1723,-0.1788,-0.1817,-0.1856,-0.1873,-0.187,-0.184,-0.1853,-0.1821,-0.1832,-0.1685,-0.1674,-0.1796,-0.1793,-0.1823,-0.1824,-0.1824,-0.1824,-0.1824,0,-0.1341,-0.1376,-0.1457,-0.1476,-0.1528,-0.1585,-0.1644,-0.1688,-0.1754,-0.1781,-0.1839,-0.1847,-0.1884,-0.1868,-0.1844,-0.1748,-0.1822,-0.1677,-0.1653,-0.181,-0.1809,-0.1795,-0.1792,-0.1822,-0.1822,-0.1823,-0.1823,0,-0.1292,-0.1349,-0.1395,-0.1482,-0.1513,-0.1552,-0.1643,-0.1677,-0.1751,-0.1783,-0.1803,-0.1848,-0.1816,-0.1814,-0.1788,-0.1728,-0.1666,-0.1612,-0.1756,-0.1742,-0.1515,-0.1515,-0.1447,-0.1442,-0.1438,-0.1434,-0.1431,0,-0.1264,-0.1284,-0.1384,-0.1412,-0.1455,-0.1526,-0.1565,-0.166,-0.1685,-0.1757,-0.1752,-0.1759,-0.1765,-0.1608,-0.1632,-0.1553,-0.1536,-0.1496,-0.1527,-0.1493,-0.1477,-0.1484,-0.149,-0.1424,-0.1423,-0.1422,-0.1421,0,-0.1198,-0.125,-0.1285,-0.1344,-0.1398,-0.1443,-0.1507,-0.1516,-0.1603,-0.1693,-0.164,-0.1602,-0.1553,-0.151,-0.1448,-0.1403,-0.1523,-0.1451,-0.146,-0.1489,-0.1464,-0.1454,-0.1465,-0.1405,-0.1408,-0.1409,-0.141,0,-0.1145,-0.1156,-0.1211,-0.1246,-0.1311,-0.1321,-0.1377,-0.1391,-0.1426,-0.1512,-0.1487,-0.1487,-0.1532,-0.1429,-0.1378,-0.1312,-0.13,-0.1266,-0.1285,-0.1302,-0.1276,-0.1224,-0.1058,0,0,0,0,0,-0.108,-0.1074,-0.1103,-0.1131,-0.1191,-0.1219,-0.131,-0.1368,-0.1461,-0.1381,-0.1428,-0.137,-0.1287,-0.1294,-0.1191,-0.131,-0.1307,-0.1187,-0.128,-0.1321,-0.1339,-0.132,0,0,0,0,0,0,-0.1032,-0.1057,-0.106,-0.102,-0.1013,-0.1059,-0.1108,-0.1178,-0.1144,-0.1242,-0.1199,-0.1274,-0.121,-0.1303,-0.1153,-0.1154,-0.1182,-0.1202,-0.1198,-0.1311,-0.1327,-0.1341,-0.1328,0,0,0,0,0]},{"header":{"parameterUnit":"m.s-1","parameterCategory":2,"la1":30.2991,"la2":30.254,"lo1":-89.0895,"lo2":-89.0444,"dy":0.0017,"dx":0.0017,"nx":28,"ny":28,"refTime":"2026-02-09T09:00:00:Z","depth":"4","parameterNumber":3,"parameterNumberName":"V-component_of_CURRENTS"},"data":[0,0,0,0,0,0,0,0,0,0,0,0,0,0,0,0,0,0,0,0,0,0,0,0,0,0,0,0,0,0,0,0,0,0,0,0,0,0,0,0,0,0,0,0,0,0,0,0,0,0,0,0,0,0,0,0,0,0,-0.0431,-0.0431,0,-0.0435,-0.0435,-0.0435,-0.0429,-0.0428,-0.0428,-0.0428,-0.0396,-0.0396,-0.0395,0,0,0,0,0,0,0,0,0,0,0,0,0,-0.0425,-0.0426,-0.0431,-0.0431,-0.0431,-0.0435,-0.0435,-0.0435,-0.0429,-0.0428,-0.0428,-0.0428,-0.0397,-0.0396,-0.0395,0,0,0,0,0,0,0,0,0,0,0,0,0,-0.0429,-0.0426,-0.0431,-0.0427,-0.0427,-0.0435,-0.0435,-0.0435,-0.0429,-0.0428,-0.0428,-0.0428,-0.0397,-0.0396,-0.0395,-0.0399,0,0,-0.0393,-0.0392,0,0,0,0,0,0,0,0,-0.0429,-0.0429,-0.0428,-0.0428,-0.0427,-0.043,-0.0422,-0.0421,-0.0429,-0.0429,-0.0428,-0.0427,-0.0404,-0.0403,-0.0406,-0.0398,-0.0396,-0.0393,-0.0392,-0.0392,-0.0391,0,0,0,0,0,0,0,-0.0429,-0.0429,-0.0433,-0.0428,-0.0427,-0.0429,-0.0429,-0.0422,-0.0419,-0.0429,-0.0428,-0.0428,-0.0404,-0.0407,-0.0405,-0.0396,-0.0393,-0.0392,-0.0391,-0.0391,-0.0369,-0.0369,0,0,0,0,0,0,-0.0427,-0.0429,-0.0433,-0.0433,-0.0426,-0.0429,-0.0429,-0.043,-0.042,-0.0418,-0.0428,-0.0427,-0.0409,-0.0406,-0.0404,-0.0399,-0.0392,-0.0391,-0.039,-0.0369,-0.0369,-0.0369,0,0,0,0,0,0,-0.0427,-0.0427,-0.0433,-0.043,-0.0431,-0.0429,-0.0431,-0.0431,-0.0437,-0.0419,-0.0417,-0.0435,-0.0408,-0.0405,-0.04,-0.0398,-0.0391,-0.039,-0.0369,-0.0369,-0.0369,-0.0394,0,0,0,0,0,0,-0.0427,-0.0427,-0.0432,-0.043,-0.0431,-0.0439,-0.0431,-0.0431,-0.0437,-0.0436,-0.0425,-0.0421,-0.0408,-0.0401,-0.0399,-0.0396,-0.0389,-0.0369,-0.0369,-0.0369,-0.0393,-0.0395,-0.0396,0,0,0,0,0,-0.0426,-0.0435,-0.0432,-0.0433,-0.0436,-0.0439,-0.044,-0.0437,-0.0438,-0.0442,-0.0433,-0.0422,-0.0398,-0.0401,-0.0398,-0.0395,-0.037,-0.0369,-0.0369,-0.0392,-0.0394,-0.0396,0,0,0,0,0,0,-0.0436,-0.0435,-0.0432,-0.044,-0.0439,-0.0438,-0.0444,-0.0443,-0.0442,-0.0443,-0.0426,-0.0422,-0.0415,-0.0403,-0.0406,-0.0387,-0.038,-0.0379,-0.0398,-0.04,-0.0401,-0.0388,-0.0388,0,0,0,0,0,-0.044,-0.0446,-0.0442,-0.0449,-0.045,-0.0449,-0.0452,-0.0451,-0.0447,-0.0447,-0.0438,-0.0426,-0.0413,-0.0405,-0.0395,-0.0389,-0.035,-0.0383,-0.0384,-0.0385,-0.0373,-0.0306,-0.0299,-0.0369,-0.0369,-0.0369,0,0,-0.0447,-0.0446,-0.0451,-0.0452,-0.0453,-0.0458,-0.0451,-0.0458,-0.0459,-0.0443,-0.0446,-0.0434,-0.0413,-0.0404,-0.0399,-0.0394,-0.0349,-0.0385,-0.0386,-0.0373,-0.0305,-0.0298,-0.0292,-0.0368,-0.0368,-0.0368,0,0,-0.0462,-0.0463,-0.0471,-0.0472,-0.0473,-0.0471,-0.0474,-0.0475,-0.0472,-0.0473,-0.0458,-0.044,-0.0433,-0.0408,-0.0396,-0.0397,-0.0361,-0.0401,-0.0395,-0.0331,-0.0324,-0.0318,-0.0275,-0.0264,-0.0399,-0.0399,-0.0399,0,-0.047,-0.0479,-0.0475,-0.0481,-0.0484,-0.0478,-0.0487,-0.0484,-0.0482,-0.0474,-0.0475,-0.0439,-0.0427,-0.0395,-0.0398,-0.0398,-0.0364,-0.0393,-0.0331,-0.0324,-0.0317,-0.0274,-0.0262,-0.04,-0.04,-0.04,-0.04,0,-0.0487,-0.0496,-0.0502,-0.0506,-0.0508,-0.0516,-0.0508,-0.0508,-0.0505,-0.0494,-0.0468,-0.0444,-0.0415,-0.0413,-0.0409,-0.0358,-0.0352,-0.0343,-0.0326,-0.0311,-0.0268,-0.0255,-0.0402,-0.0401,-0.0401,-0.0401,0,0,-0.0502,-0.0513,-0.0516,-0.0522,-0.0523,-0.0526,-0.0525,-0.0516,-0.0508,-0.0491,-0.0466,-0.044,-0.0417,-0.04,-0.0384,-0.0332,-0.0266,-0.0322,-0.0318,-0.0278,-0.0136,-0.0158,-0.0146,-0.0247,-0.0244,-0.0242,-0.0131,0,-0.0517,-0.0538,-0.0535,-0.0552,-0.0562,-0.0552,-0.0549,-0.0537,-0.0521,-0.0495,-0.0448,-0.0422,-0.0415,-0.04,-0.0345,-0.0292,-0.0231,-0.0298,-0.0157,-0.0153,-0.0172,-0.0131,-0.0235,-0.0121,-0.0118,-0.0116,-0.0114,0,-0.0534,-0.0546,-0.0569,-0.0574,-0.0576,-0.0584,-0.0573,-0.0568,-0.0524,-0.0506,-0.0458,-0.0423,-0.0356,-0.0346,-0.0218,-0.0264,-0.0196,-0.0146,-0.0141,-0.0139,-0.015,-0.0134,-0.009,-0.0092,-0.0094,-0.0095,-0.0097,0,-0.055,-0.0567,-0.0588,-0.0592,-0.0597,-0.0602,-0.0602,-0.0575,-0.0565,-0.0508,-0.0486,-0.0401,-0.0356,-0.0256,-0.0171,-0.0186,-0.0024,-0.0029,0.0024,0.0022,0.0019,0.0011,0.0094,0.0093,0.0093,0.0093,0.0093,0,-0.0565,-0.0582,-0.0602,-0.0614,-0.0635,-0.0624,-0.0631,-0.0614,-0.0577,-0.0553,-0.0493,-0.0446,-0.0329,-0.0235,-0.0151,-0.0031,-0.0001,0.0043,0.0061,0.0002,-0.0009,0.0027,0.0018,0.0097,0.0096,0.0095,0.0095,0,-0.0578,-0.0591,-0.0619,-0.0637,-0.0647,-0.0662,-0.0667,-0.0662,-0.0623,-0.0586,-0.0566,-0.0466,-0.0345,-0.0231,-0.0066,-0.0011,0.0107,0.0149,0.007,0.0078,0.0107,0.0095,0.0226,0.0226,0.0226,0.0227,0.0227,0,-0.0584,-0.0602,-0.0646,-0.0672,-0.0687,-0.0707,-0.072,-0.0694,-0.0682,-0.0596,-0.0573,-0.0452,-0.0377,-0.016,-0.0047,0.0124,0.0143,0.02,0.0166,0.0122,0.0126,0.0114,0.0102,0.0227,0.0227,0.0228,0.0228,0,-0.0595,-0.062,-0.0645,-0.0704,-0.0735,-0.0758,-0.0769,-0.0757,-0.0707,-0.0673,-0.0559,-0.0442,-0.0302,-0.0152,-0.0021,0.0099,0.0156,0.0204,0.0204,0.0173,0.0125,0.0126,0.0114,0.0229,0.0229,0.0229,0.0228,0,-0.0607,-0.0634,-0.068,-0.0725,-0.0773,-0.0795,-0.0794,-0.0759,-0.0731,-0.0628,-0.0588,-0.0432,-0.0335,-0.0163,-0.0043,0.0068,0.0094,0.0119,0.0124,0.0124,0.0048,-0.003,0.006,0,0,0,0,0,-0.0613,-0.0647,-0.0695,-0.0745,-0.0794,-0.0818,-0.082,-0.0805,-0.0751,-0.0673,-0.0624,-0.049,-0.0289,-0.02,-0.0089,-0.0055,0.0093,0.0075,0.0119,0.0235,0.0234,0.0159,0,0,0,0,0,0,-0.062,-0.0669,-0.0694,-0.0753,-0.0791,-0.0834,-0.0836,-0.08,-0.0744,-0.0674,-0.0565,-0.0481,-0.0291,-0.0354,-0.0093,-0.0058,-0.0019,0.0176,0.0178,0.0236,0.0235,0.0234,0.0156,0,0,0,0,0]}]]